Regional Weather Roundup
Issued by NWS

Home | Current Version | Previous Version | Graphics & Text | Print | Product List | Glossary On
Versions: 1 2 3 4 5 6 7 8 9 10 11 12 13 14 15 16 17 18 19 20 21 22 23 24 25 26 27 28 29 30 31 32 33 34 35 36 37 38 39 40 41 42 43 44 45 46 47 48 49 50
000
ASUS45 KTFX 210010
RWRMT
MONTANA REGIONAL WEATHER ROUNDUP
NATIONAL WEATHER SERVICE GREAT FALLS MT
500 PM MST MON NOV 20 2017

NOTE: "FAIR" INDICATES FEW OR NO CLOUDS BELOW 12000 FEET WITH NO
SIGNIFICANT WEATHER AND/OR OBSTRUCTIONS TO VISIBILITY.

MTZ001>007-043-210100-
WEST OF THE DIVIDE

CITY           SKY/WX    TMP DP  RH WIND       PRES   REMARKS
KALISPELL      LGT RAIN  40  39  97 SE10      29.76S
MISSOULA       LGT RAIN  39  39 100 CALM      29.82R FOG
BUTTE          CLOUDY    41  32  70 W7        29.79R
MULLAN PASS    LGT SNOW  31  29  92 S9        29.73R VSB 3/4 WCI  23
ANACONDA         N/A     39  34  81 S16G25    29.76R WCI  30
DEER LODGE       N/A     41  34  75 SE10G17   29.76S
EUREKA           N/A     39  36  87 MISG      29.74R
HAMILTON         N/A     45  37  76 SE13G18   29.77R
LIBBY            N/A     37  37 100 CALM      29.73R
PLAINS           N/A     40  36  86 CALM      29.81R
RONAN            N/A     41  39  92 CALM      29.85R
$$

MTZ008-052>055-210100-
SOUTHWEST MONTANA

CITY           SKY/WX    TMP DP  RH WIND       PRES   REMARKS
BOZEMAN        CLOUDY    42  31  64 VRB6      29.78S
DILLON         FAIR      37  31  78 S3        29.82F
W YELLOWSTONE  CLOUDY    30  27  86 SE9       29.94F WCI  22
ENNIS          CLOUDY    37  30  75 S20       29.88F WCI  27
TWIN BRIDGES     N/A     41  30  65 CALM      29.82F
$$

MTZ009-010-012-014-046-048-049-054-210100-
EAST SLOPES AND CENTRAL MONTANA

CITY           SKY/WX    TMP DP  RH WIND       PRES   REMARKS
CUT BANK       CLOUDY    26  21  81 N10       29.82R WCI  16
GREAT FALLS    LGT SNOW  30  25  81 E9        29.80R WCI  22
MALMSTROM AFB  LGT SNOW  28  27  93 NE10      29.82R WCI  19
HELENA         CLOUDY    43  37  79 W7        29.74R
CHOTEAU          N/A     30  25  80 N6        29.83R WCI  24
FAIRFIELD      CLOUDY    30  22  70 NE8       29.81R WCI  23
POWER          MOCLDY    28  22  76 E8        29.81R WCI  20
RAYNESFORD     LGT SNOW  30  29  95 W7        29.79R WCI  23
ULM            LGT SNOW  30  29  94 NE8       29.80R WCI  23
$$

MTZ011-013-016-021-045-047-050-051-210100-
NORTH CENTRAL MONTANA

CITY           SKY/WX    TMP DP  RH WIND       PRES   REMARKS
HAVRE          CLOUDY    31  23  72 N8        29.86R WCI  23
LEWISTOWN      CLOUDY    37  29  72 NE9       29.76R WCI  30
N BAR RANCH    MIX PCPN  32  27  80 E12       29.79R WCI  23
CHINOOK          N/A     30  21  69 NW6       29.86R WCI  24
DENTON         LGT RAIN  31  24  74 NW10G20   29.76R WCI  23
GEYSER         SNOWSHWR  28  27  97 E10       29.78R WCI  18
GRASS RANGE    FLURRIES  31  29  94 E6        29.76R WCI  25
STANFORD       FLURRIES  30  25  83 N8        29.78R WCI  22
WINIFRED       LGT SNOW  29  25  83 NE12      29.79R WCI  20
$$

MTZ017>020-022>027-061-062-210100-
NORTHEAST MONTANA

CITY           SKY/WX    TMP DP  RH WIND       PRES   REMARKS
GLASGOW        CLOUDY    31  17  56 NW14      29.81R WCI  21
GLENDIVE       LGT RAIN  35  16  45 N20       29.75R WCI  24
JORDAN           N/A     34  18  52 N7        29.79R WCI  28
SIDNEY         CLOUDY    34  15  46 N8        29.77R WCI  27
WOLF POINT     CLOUDY    34  15  46 NW16G22   29.79R WCI  24
MALTA          CLOUDY    32  18  55 NW10      29.85R WCI  24
PLENTYWOOD       N/A     21  12  68 W21G28    29.74R WCI   6
POPLAR           N/A     30  10  43 NW10      29.79R WCI  21
SCOBEY           N/A     24   9  53 W14       29.77R WCI  12
$$

MTZ028>42-056>058-210100-
SOUTHCENTRAL AND SOUTHEAST MONTANA

CITY           SKY/WX    TMP DP  RH WIND       PRES   REMARKS
BAKER          CLOUDY    37  27  67 NW12      29.72R WCI  29
BILLINGS       CLOUDY    49  34  56 CALM      29.74R
LIVINGSTON     LGT RAIN  40  50 100 SW20G45   29.75R
MILES CITY     CLOUDY    38  27  64 N14       29.78R WCI  30
BIG TIMBER     CLOUDY    41  32  70 W30G39    29.76S
EKALAKA          N/A     38  24  57 NW10      29.72R WCI  31
FORSYTH          N/A     39  27  60 N7        29.77R
HARLOWTON      LGT RAIN  39  34  82 NW21      29.73R WCI  29
LAUREL           N/A     50  32  50 W6        29.74R
$$

REGIONAL REPORTS...DAKOTAS

CITY           SKY/WX    TMP DP  RH WIND       PRES   REMARKS
WILLISTON      FAIR      30  17  58 W14       29.73R WCI  19
MINOT          MOCLDY    28  18  66 NW31G43   29.60R WCI  12
DICKINSON      MOCLDY    34  22  61 NW13      29.67R WCI  25
BEACH          MOCLDY    34  16  47 NW14      29.75R WCI  24
CROSBY         MOCLDY    21  14  73 NW29G36   29.73R WCI   3
TIOGA          CLOUDY    27  16  63 NW24G32   29.67R WCI  12
WATFORD CITY   CLOUDY    32  14  47 NW17G24   29.70S WCI  21
BISMARCK       FAIR      42  29  59 NW17G25   29.65R
GRAND FORKS    FAIR      38  32  79 NW21G29   29.39R WCI  28
FARGO          FAIR      45  30  55 W25G38    29.44R
BUFFALO SD       N/A     41  26  55 NW15      29.62R
RAPID CITY     FAIR      50  22  33 N18       29.69R
$$

REGIONAL REPORTS...WYOMING/IDAHO/WASHINGTON

CITY           SKY/WX    TMP DP  RH WIND       PRES   REMARKS
GILLETTE       MOCLDY    44  24  45 SW9       29.72S
SHERIDAN       CLOUDY    51  27  39 N5        29.71R
BUFFALO WY     CLOUDY    47  24  40 CALM      29.75R
CODY           FAIR      43  29  57 W16G29    29.80F
YELLOWSTONE LA   N/A     27  25  92 VRB3      29.97S
IDAHO FALLS    CLOUDY    38  37  97 SW15      30.02F WCI  29
SALMON         MOCLDY    36  32  85 S3        29.87F
BOISE          CLOUDY    47  40  76 SE13      29.96R
SPOKANE        CLOUDY    45  43  93 W17       29.74R
$$

REGIONAL REPORTS...ALBERTA

CITY           SKY/WX    TMP DP  RH WIND       PRES   REMARKS
EDMONTON       CLEAR     -2 -11  65 N7        30.05R WCI -16
CALGARY        FLURRIES  16  12  86 E8        29.89R WCI   5
LETHBRIDGE     CLOUDY    21  18  86 E13       29.90R WCI   9
MEDICINE HAT   CLOUDY    16   7  67 N13       29.95R WCI   2
$$

REGIONAL REPORTS...SASKATCHEWAN

CITY           SKY/WX    TMP DP  RH WIND       PRES   REMARKS
SWIFT CURRENT  CLOUDY     9   0  66 NW21G26   29.84R WCI -11
REGINA         PTCLDY     9   1  72 NW30G37   29.78R WCI -14
SASKATOON      MOCLDY     3  -2  78 NW16      29.87R WCI -16
$$



USA.gov is the U.S. government's official web portal to all federal, state and local government web resources and services.